Location: Isle of Man Observatory
(54.1776°N, 4.6264°W)
Time: 14:07:06
(UTC+02:00)

BlueWalker 3 - Visible Passes

Search period start: 08 May 2026 00:00
Search period end: 18 May 2026 00:00
Orbit: 448 x 458 km, 53.2° (Epoch: 7 May)

Date Brightness Start Highest point End Pass type
(mag) Time Alt. Az. Time Alt. Az. Time Alt. Az.
8 May 4.2 04:17:53 10° SSE 04:18:37 11° SE 04:19:22 10° ESE visible
9 May 2.8 05:15:43 12° SSW 05:18:34 32° SSE 05:21:46 10° E visible
10 May 3.0 04:40:06 18° SSW 04:41:54 27° SSE 04:44:57 10° E visible
11 May 3.2 04:04:26 21° SSE 04:05:15 22° SE 04:08:04 10° E visible
12 May 3.4 03:28:43 19° SE 03:28:43 19° SE 03:31:08 10° E visible
12 May 1.9 05:02:20 12° WSW 05:05:28 54° SSE 05:08:57 10° E visible
13 May 3.9 02:52:57 14° ESE 02:52:57 14° ESE 02:54:06 10° ESE visible
13 May 2.0 04:26:34 20° SW 04:28:44 48° SSE 04:32:10 10° E visible
14 May 2.2 03:50:45 29° SSW 03:51:59 41° SSE 03:55:22 10° E visible
14 May 1.7 05:25:39 10° W 05:29:12 77° S 05:32:45 10° E visible
15 May 2.3 03:14:52 34° S 03:15:15 36° SSE 03:18:32 10° E visible
15 May 1.6 04:48:52 10° WSW 04:52:25 75° S 04:55:58 10° E visible
16 May 2.7 02:38:55 29° SE 02:38:55 29° SE 02:41:40 10° E visible
16 May 1.6 04:12:30 13° WSW 04:15:37 71° S 04:19:09 10° E visible
17 May 3.2 02:02:52 22° ESE 02:02:52 22° ESE 02:04:47 10° E visible
17 May 1.6 03:36:28 19° WSW 03:38:49 65° SSE 03:42:21 10° E visible
17 May 1.6 05:12:36 10° W 05:16:08 73° S 05:19:41 10° ESE visible
